Weather History for San Antonio, TX

Change the Weather History Date:

Thursday, February 7, 2013

  Actual Average Record
Temperature  
Mean Temperature 69 °F 54 °F  
Max Temperature 78 °F 65 °F 84 °F (1999)
Min Temperature 59 °F 43 °F 13 °F (1895)
Degree Days  
Heating Degree Days 0 12  
Month to date heating degree days 17 84  
Since 1 July heating degree days 838 1102  
Cooling Degree Days 4 1  
Month to date cooling degree days 6 3  
Year to date cooling degree days 33 10  
Growing Degree Days 18 (Base 50)    
Moisture  
Dew Point 57 °F    
Average Humidity 70    
Maximum Humidity 100    
Minimum Humidity 40    
Precipitation  
Precipitation T in 0.06 in 0.84 in (1978)
Month to date precipitation 0.02 0.43  
Year to date precipitation 2.85 2.19  
Snow  
Snow 0.00 in - - ()
Month to date snowfall 0.0  
Since 1 July snowfall T  
Snow Depth 0.00 in    
Sea Level Pressure  
Sea Level Pressure 29.92 in    
Wind  
Wind Speed 6 mph (South)    
Max Wind Speed 18 mph    
Max Gust Speed 24 mph    
Visibility 8 miles    
Events      
T = Trace of Precipitation, MM = Missing Value Source: NWS Daily Summary

Daily Weather History Graph

Daily Weather History Graph

Search for Another Location

Airport:

Trip Planner

Search our weather history database for the weather conditions in past years. The results will help you decide how hot, cold, wet, or windy it might be!

Date:

Astronomy

Feb. 07, 2013 Rise Set
Actual Time 7:19 AM CST 6:17 PM CST
Civil Twilight 6:54 AM CST 6:41 PM CST
Nautical Twilight 6:26 AM CST 7:10 PM CST
Astronomical Twilight 5:58 AM CST 7:37 PM CST
Moon 4:53 AM CST (2/7) 3:49 PM CST (2/7)
Length of Visible Light 11h 47m
Length of Day
10h 57m
Waning Crescent, 9% of the Moon is Illuminated
Feb 7
Waning Crescent
Feb 10
New
Feb 17
First Quarter
Feb 25
Full
Mar 4
Last Quarter

Hourly Weather History & Observations

Time (CST) Temp. Dew Point Humidity Pressure Visibility Wind Dir Wind Speed Gust Speed Precip Events Conditions
12:33 AM 62.6 °F 57.2 °F 82% 29.95 in 10.0 mi SE 10.4 mph - N/A   Overcast
12:51 AM 61.0 °F 57.0 °F 87% 29.91 in 10.0 mi SE 11.5 mph - N/A   Overcast
1:42 AM 60.8 °F 57.2 °F 88% 29.95 in 10.0 mi SE 8.1 mph - N/A   Overcast
1:51 AM 61.0 °F 57.9 °F 90% 29.90 in 10.0 mi SE 5.8 mph - N/A   Overcast
2:51 AM 60.1 °F 59.0 °F 96% 29.90 in 7.0 mi SSE 3.5 mph - N/A   Overcast
3:51 AM 60.1 °F 59.0 °F 96% 29.89 in 6.0 mi SE 3.5 mph - N/A   Overcast
4:51 AM 59.0 °F 59.0 °F 100% 29.89 in 6.0 mi ESE 4.6 mph - N/A   Overcast
5:51 AM 59.0 °F 59.0 °F 100% 29.88 in 6.0 mi ESE 5.8 mph - N/A   Overcast
6:09 AM 59.0 °F 59.0 °F 100% 29.93 in 2.5 mi ESE 4.6 mph - N/A   Overcast
6:29 AM 59.0 °F 59.0 °F 100% 29.93 in 1.5 mi ESE 5.8 mph - N/A   Overcast
6:51 AM 59.0 °F 59.0 °F 100% 29.89 in 1.5 mi SE 5.8 mph - N/A   Overcast
7:51 AM 59.0 °F 59.0 °F 100% 29.92 in 1.5 mi SW 3.5 mph - 0.00 in   Light Drizzle
7:53 AM 59.0 °F 59.0 °F 100% 29.95 in 2.5 mi WSW 3.5 mph - 0.00 in   Light Drizzle
8:22 AM 60.8 °F 57.2 °F 88% 29.97 in 5.0 mi SW 5.8 mph - 0.00 in   Overcast
8:51 AM 61.0 °F 59.0 °F 93% 29.93 in 7.0 mi South 3.5 mph - 0.00 in   Overcast
9:51 AM 62.1 °F 57.9 °F 86% 29.96 in 10.0 mi WNW 4.6 mph - N/A   Overcast
10:51 AM 64.9 °F 59.0 °F 81% 29.96 in 10.0 mi Calm Calm - N/A   Overcast
11:51 AM 66.9 °F 60.1 °F 79% 29.94 in 10.0 mi SW 4.6 mph - N/A   Mostly Cloudy
12:06 PM 69.8 °F 60.8 °F 73% 29.97 in 10.0 mi WSW 6.9 mph - N/A   Scattered Clouds
12:51 PM 71.1 °F 61.0 °F 70% 29.92 in 10.0 mi Variable 3.5 mph - N/A   Scattered Clouds
1:51 PM 73.9 °F 61.0 °F 64% 29.88 in 10.0 mi Variable 5.8 mph - N/A   Partly Cloudy
2:51 PM 75.9 °F 60.1 °F 58% 29.87 in 10.0 mi West 6.9 mph - N/A   Partly Cloudy
3:51 PM 77.0 °F 59.0 °F 54% 29.85 in 10.0 mi WSW 5.8 mph - N/A   Scattered Clouds
4:51 PM 78.1 °F 59.0 °F 52% 29.84 in 10.0 mi SW 8.1 mph - N/A   Scattered Clouds
5:51 PM 75.9 °F 57.9 °F 54% 29.86 in 10.0 mi SSW 9.2 mph 17.3 mph N/A   Scattered Clouds
6:51 PM 72.0 °F 57.9 °F 61% 29.88 in 10.0 mi WSW 6.9 mph - N/A   Scattered Clouds
7:51 PM 69.1 °F 57.0 °F 65% 29.92 in 10.0 mi NW 4.6 mph - N/A   Partly Cloudy
8:51 PM 66.9 °F 52.0 °F 59% 29.96 in 10.0 mi North 4.6 mph - N/A   Partly Cloudy
9:51 PM 64.9 °F 39.9 °F 40% 29.99 in 10.0 mi North 8.1 mph - N/A   Partly Cloudy
10:51 PM 64.9 °F 41.0 °F 42% 30.01 in 10.0 mi NNE 9.2 mph - N/A   Partly Cloudy
11:51 PM 63.0 °F 46.0 °F 54% 30.03 in 10.0 mi North 11.5 mph - N/A   Partly Cloudy